Startpagina
METAR-TAF:

METAR-TAF

Vliegvelden :

Yap, Micronesië

breedte: 09-29N, lengte: 138-05E, hoogte: 28 m

Actueel weer

Dit bericht is 28 minuten geleden gemaakt, om 06:50 UTC
Wind 3 kt uit variabele richting
Temperatuur 27°C
Vochtigheid 89%
Druk 1008 hPa
Zicht: 16.1 km
Verspreide wolken op 1600 ft, Stapelwolken.
Gebroken wolken op 13000 ft
Gebroken wolken op 30000 ft
lichte regenbuien

METAR: PTYA 200650Z VRB03KT 10SM -SHRA SCT016TCU BKN130 BKN300 27/25 A2977 RMK TCU W-N AND OHD SLP083 T02660253

Tijdstip: 17:18 (07:18 UTC)

Verwachting

Dit bericht is 1 uur en het 58 minuten geleden gemaakt, om 05:20 UTC
Verwachting geldig van 20 om 06 UTC tot 21 om 06 UTC
Wind 7 kt uit het oosten
Zicht: 10 km
Weinig wolken op 1600 ft
Verspreide wolken op 13000 ft
buien in de omgeving

TAF: PTYA 200520Z 2006/2106 09007KT P6SM VCSH FEW016 SCT130

Waarnemingen en weersverwachtingen van meer dan 4000 vliegvelden (METAR en TAF).

De beschikbare stations zijn de gele en rode punten op de kaart.

Ga met uw muis naar het station om de naam te zien.

Klik dan om waarnemingen en weersverwachtingen te zien.

kaart wijzigen: klik op de groene knoppen met een zwart kruis om in te zoomen, op de groene knop met een streepje om uit te zoomen of op de groene pijlen voor aangrenzende kaarten.


METAR-TAF: